Time,TemperatureF,DewpointF,PressureIn,WindDirection,WindDirectionDegrees,WindSpeedMPH,WindSpeedGustMPH,Humidity,HourlyPrecipIn,Conditions,Clouds,dailyrainin,SoftwareType,DateUTC
2013-08-26 00:14:00,66.0,59.0,30.21,SW,231,4.0,10.0,77,0.00,,,0.00,,2013-08-26 04:14:00,
2013-08-26 00:53:00,65.0,60.0,30.20,SW,233,4.0,7.0,84,0.00,,,0.00,,2013-08-26 04:53:00,
2013-08-26 01:03:00,65.0,60.0,30.20,SW,233,4.0,7.0,84,0.00,,,0.00,,2013-08-26 05:03:00,
2013-08-26 01:13:00,65.0,60.0,30.20,SW,233,4.0,7.0,84,0.00,,,0.00,,2013-08-26 05:13:00,
2013-08-26 01:23:00,66.0,61.0,30.20,SW,233,4.0,9.0,83,0.00,,,0.00,,2013-08-26 05:23:00,
2013-08-26 01:44:00,66.0,60.0,30.19,SW,220,7.0,10.0,82,0.00,,,0.00,,2013-08-26 05:44:00,
2013-08-26 01:52:00,66.0,60.0,30.19,WSW,237,5.0,10.0,82,0.00,,,0.00,,2013-08-26 05:52:00,
2013-08-26 02:02:00,66.0,60.0,30.19,WSW,237,5.0,10.0,82,0.00,,,0.00,,2013-08-26 06:02:00,
2013-08-26 02:12:00,66.0,60.0,30.19,WSW,237,5.0,10.0,82,0.00,,,0.00,,2013-08-26 06:12:00,
2013-08-26 02:22:00,67.0,61.0,30.19,SW,222,4.0,9.0,81,0.00,,,0.00,,2013-08-26 06:22:00,
2013-08-26 02:42:00,68.0,62.0,30.18,SW,234,3.0,14.0,80,0.00,,,0.00,,2013-08-26 06:42:00,
2013-08-26 02:52:00,68.0,62.0,30.17,SW,231,3.0,11.0,81,0.00,,,0.00,,2013-08-26 06:52:00,
2013-08-26 03:11:00,68.0,62.0,30.17,SW,226,6.0,10.0,82,0.00,,,0.00,,2013-08-26 07:11:00,
2013-08-26 03:22:00,68.0,62.0,30.17,SW,226,6.0,10.0,82,0.00,,,0.00,,2013-08-26 07:22:00,
2013-08-26 03:32:00,68.0,62.0,30.17,SW,226,6.0,10.0,82,0.00,,,0.00,,2013-08-26 07:32:00,
2013-08-26 03:52:00,68.0,63.0,30.16,SW,215,3.0,10.0,84,0.00,,,0.00,,2013-08-26 07:52:00,
2013-08-26 04:02:00,68.0,63.0,30.16,SW,215,3.0,10.0,84,0.00,,,0.00,,2013-08-26 08:02:00,
2013-08-26 04:12:00,68.0,63.0,30.16,SW,215,3.0,10.0,84,0.00,,,0.00,,2013-08-26 08:12:00,
2013-08-26 04:22:00,68.0,63.0,30.14,WSW,241,3.0,9.0,85,0.00,,,0.00,,2013-08-26 08:22:00,
2013-08-26 04:32:00,68.0,63.0,30.14,WSW,241,3.0,9.0,85,0.00,,,0.00,,2013-08-26 08:32:00,
2013-08-26 04:52:00,68.0,63.0,30.14,WSW,241,3.0,9.0,85,0.00,,,0.00,,2013-08-26 08:52:00,
2013-08-26 05:11:00,68.0,64.0,30.14,SW,227,4.0,11.0,86,0.00,,,0.00,,2013-08-26 09:11:00,
2013-08-26 05:22:00,68.0,64.0,30.14,SW,233,5.0,11.0,86,0.00,,,0.00,,2013-08-26 09:22:00,
2013-08-26 05:43:00,68.0,64.0,30.13,SW,234,5.0,12.0,87,0.00,,,0.00,,2013-08-26 09:43:00,
2013-08-26 05:53:00,68.0,64.0,30.13,SW,234,5.0,12.0,87,0.00,,,0.00,,2013-08-26 09:53:00,
2013-08-26 06:12:00,68.0,64.0,30.13,SW,225,6.0,11.0,88,0.00,,,0.00,,2013-08-26 10:12:00,
2013-08-26 06:23:00,68.0,64.0,30.13,SW,234,4.0,12.0,88,0.00,,,0.00,,2013-08-26 10:23:00,
2013-08-26 06:42:00,68.0,64.0,30.13,SW,230,6.0,9.0,88,0.00,,,0.00,,2013-08-26 10:42:00,
2013-08-26 06:52:00,68.0,64.0,30.13,SW,230,6.0,9.0,88,0.00,,,0.00,,2013-08-26 10:52:00,
2013-08-26 07:12:00,68.0,64.0,30.12,SW,230,5.0,11.0,88,0.00,,,0.00,,2013-08-26 11:12:00,
2013-08-26 07:22:00,68.0,64.0,30.12,SW,230,5.0,11.0,88,0.00,,,0.00,,2013-08-26 11:22:00,
2013-08-26 07:52:00,69.0,65.0,30.11,SW,225,7.0,14.0,87,0.00,,,0.00,,2013-08-26 11:52:00,
2013-08-26 08:01:00,69.0,65.0,30.11,SW,225,7.0,14.0,87,0.00,,,0.00,,2013-08-26 12:01:00,
2013-08-26 08:12:00,69.0,65.0,30.11,SW,225,7.0,14.0,87,0.00,,,0.00,,2013-08-26 12:12:00,
2013-08-26 08:22:00,69.0,64.0,30.10,SW,236,5.0,14.0,85,0.00,,,0.00,,2013-08-26 12:22:00,
2013-08-26 08:52:00,70.0,65.0,30.09,WSW,244,5.0,12.0,84,0.00,,,0.00,,2013-08-26 12:52:00,
2013-08-26 09:12:00,70.0,64.0,30.09,WSW,241,4.0,18.0,80,0.00,,,0.00,,2013-08-26 13:12:00,
2013-08-26 09:22:00,71.0,65.0,30.10,WSW,242,5.0,19.0,80,0.00,,,0.00,,2013-08-26 13:22:00,
2013-08-26 09:42:00,71.0,65.0,30.09,WSW,251,6.0,14.0,81,0.00,,,0.00,,2013-08-26 13:42:00,
2013-08-26 09:52:00,71.0,65.0,30.09,WSW,251,7.0,20.0,80,0.00,,,0.00,,2013-08-26 13:52:00,
2013-08-26 10:22:00,72.0,65.0,30.07,WSW,239,12.0,18.0,80,0.00,,,0.00,,2013-08-26 14:22:00,
2013-08-26 10:42:00,72.0,65.0,30.07,WSW,252,8.0,14.0,80,0.00,,,0.00,,2013-08-26 14:42:00,
2013-08-26 10:52:00,72.0,66.0,30.07,SW,231,8.0,17.0,81,0.00,,,0.00,,2013-08-26 14:52:00,
2013-08-26 11:01:00,72.0,66.0,30.07,SW,231,8.0,17.0,81,0.00,,,0.00,,2013-08-26 15:01:00,
2013-08-26 11:12:00,72.0,66.0,30.07,SW,231,8.0,17.0,81,0.00,,,0.00,,2013-08-26 15:12:00,
2013-08-26 11:22:00,72.0,66.0,30.06,SSW,211,7.0,15.0,81,0.00,,,0.00,,2013-08-26 15:22:00,
2013-08-26 11:35:00,72.0,66.0,30.06,SSW,211,7.0,15.0,81,0.00,,,0.00,,2013-08-26 15:35:00,
2013-08-26 11:47:00,72.0,66.0,30.06,SSW,211,7.0,15.0,81,0.00,,,0.00,,2013-08-26 15:47:00,
2013-08-26 11:59:00,72.0,66.0,30.06,SSW,211,7.0,15.0,81,0.00,,,0.00,,2013-08-26 15:59:00,
2013-08-26 12:17:00,73.0,66.0,30.04,SW,224,9.0,18.0,79,0.00,,,0.00,,2013-08-26 16:17:00,
2013-08-26 12:29:00,74.0,66.0,30.03,SW,232,8.0,19.0,77,0.00,,,0.00,,2013-08-26 16:29:00,
2013-08-26 12:37:00,74.0,66.0,30.03,SW,232,8.0,19.0,77,0.00,,,0.00,,2013-08-26 16:37:00,
2013-08-26 12:41:00,74.0,65.0,30.01,WSW,240,13.0,24.0,74,0.00,,,0.00,,2013-08-26 16:41:00,
2013-08-26 12:59:00,74.0,66.0,30.02,SW,218,11.0,18.0,75,0.00,,,0.00,,2013-08-26 16:59:00,
2013-08-26 13:12:00,74.0,65.0,30.01,WSW,240,13.0,24.0,74,0.00,,,0.00,,2013-08-26 17:12:00,
2013-08-26 13:24:00,74.0,65.0,30.01,WSW,240,13.0,24.0,74,0.00,,,0.00,,2013-08-26 17:24:00,
2013-08-26 13:37:00,74.0,65.0,30.01,WSW,240,13.0,24.0,74,0.00,,,0.00,,2013-08-26 17:37:00,
2013-08-26 13:53:00,75.0,66.0,29.99,SW,234,12.0,24.0,73,0.00,,,0.00,,2013-08-26 17:53:00,
2013-08-26 14:12:00,76.0,67.0,29.99,WSW,244,11.0,19.0,73,0.00,,,0.00,,2013-08-26 18:12:00,
2013-08-26 14:22:00,75.0,67.0,29.98,West,259,8.0,19.0,76,0.00,,,0.00,,2013-08-26 18:22:00,
2013-08-26 14:52:00,76.0,67.0,29.97,WSW,238,9.0,18.0,74,0.00,,,0.00,,2013-08-26 18:52:00,
2013-08-26 15:02:00,76.0,67.0,29.97,WSW,238,9.0,18.0,74,0.00,,,0.00,,2013-08-26 19:02:00,
2013-08-26 15:11:00,76.0,67.0,29.97,WSW,238,9.0,18.0,74,0.00,,,0.00,,2013-08-26 19:11:00,
2013-08-26 15:22:00,75.0,67.0,29.95,SW,233,9.0,21.0,76,0.00,,,0.00,,2013-08-26 19:22:00,
2013-08-26 15:42:00,74.0,67.0,29.95,SW,228,11.0,20.0,79,0.00,,,0.00,,2013-08-26 19:42:00,
2013-08-26 15:52:00,73.0,66.0,29.95,SW,230,8.0,16.0,80,0.00,,,0.00,,2013-08-26 19:52:00,
2013-08-26 16:11:00,74.0,66.0,29.94,WSW,245,11.0,18.0,77,0.00,,,0.00,,2013-08-26 20:11:00,
2013-08-26 16:22:00,74.0,66.0,29.93,SW,225,8.0,17.0,77,0.00,,,0.00,,2013-08-26 20:22:00,
2013-08-26 16:32:00,74.0,66.0,29.93,SW,225,8.0,17.0,77,0.00,,,0.00,,2013-08-26 20:32:00,
2013-08-26 16:43:00,74.0,66.0,29.93,SW,225,8.0,17.0,77,0.00,,,0.00,,2013-08-26 20:43:00,
2013-08-26 16:52:00,74.0,67.0,29.93,SW,218,8.0,22.0,78,0.00,,,0.00,,2013-08-26 20:52:00,
2013-08-26 17:12:00,73.0,66.0,29.92,SW,220,10.0,17.0,80,0.00,,,0.00,,2013-08-26 21:12:00,
2013-08-26 17:22:00,73.0,66.0,29.92,SW,220,10.0,17.0,80,0.00,,,0.00,,2013-08-26 21:22:00,
2013-08-26 17:55:00,72.0,67.0,29.93,SW,224,7.0,15.0,83,0.00,,,0.00,,2013-08-26 21:55:00,
2013-08-26 18:07:00,72.0,67.0,29.93,SW,224,7.0,15.0,83,0.00,,,0.00,,2013-08-26 22:07:00,
2013-08-26 18:16:00,72.0,67.0,29.93,SW,224,7.0,15.0,83,0.00,,,0.00,,2013-08-26 22:16:00,
2013-08-26 18:26:00,72.0,67.0,29.93,SW,228,6.0,13.0,84,0.00,,,0.00,,2013-08-26 22:26:00,
2013-08-26 18:53:00,71.0,66.0,29.92,SW,216,6.0,12.0,85,0.00,,,0.00,,2013-08-26 22:53:00,
2013-08-26 19:03:00,71.0,66.0,29.92,SW,216,6.0,12.0,85,0.00,,,0.00,,2013-08-26 23:03:00,
2013-08-26 19:22:00,71.0,67.0,29.91,WSW,237,7.0,13.0,86,0.00,,,0.00,,2013-08-26 23:22:00,
2013-08-26 19:34:00,71.0,67.0,29.91,WSW,237,7.0,13.0,86,0.00,,,0.00,,2013-08-26 23:34:00,
2013-08-26 19:42:00,71.0,67.0,29.91,WSW,237,7.0,13.0,86,0.00,,,0.00,,2013-08-26 23:42:00,
2013-08-26 19:52:00,71.0,67.0,29.91,WSW,237,7.0,13.0,86,0.00,,,0.00,,2013-08-26 23:52:00,
2013-08-26 20:22:00,70.0,66.0,29.91,WSW,242,4.0,12.0,88,0.00,,,0.00,,2013-08-27 00:22:00,
2013-08-26 20:42:00,70.0,66.0,29.91,WSW,240,5.0,11.0,88,0.00,,,0.00,,2013-08-27 00:42:00,
2013-08-26 20:52:00,70.0,66.0,29.90,WSW,242,4.0,9.0,88,0.00,,,0.00,,2013-08-27 00:52:00,
2013-08-26 21:02:00,70.0,66.0,29.90,WSW,242,4.0,9.0,88,0.00,,,0.00,,2013-08-27 01:02:00,
2013-08-26 21:12:00,70.0,66.0,29.90,WSW,242,4.0,9.0,88,0.00,,,0.00,,2013-08-27 01:12:00,
2013-08-26 21:22:00,70.0,66.0,29.90,WSW,241,6.0,12.0,88,0.00,,,0.00,,2013-08-27 01:22:00,
2013-08-26 21:52:00,70.0,66.0,29.90,SW,227,6.0,12.0,88,0.00,,,0.00,,2013-08-27 01:52:00,
2013-08-26 22:22:00,70.0,66.0,29.90,WSW,240,7.0,13.0,88,0.00,,,0.00,,2013-08-27 02:22:00,
2013-08-26 22:32:00,70.0,66.0,29.90,WSW,240,7.0,13.0,88,0.00,,,0.00,,2013-08-27 02:32:00,
2013-08-26 22:52:00,70.0,67.0,29.90,SW,225,5.0,13.0,89,0.00,,,0.00,,2013-08-27 02:52:00,
2013-08-26 23:02:00,70.0,67.0,29.90,SW,225,5.0,13.0,89,0.00,,,0.00,,2013-08-27 03:02:00,
2013-08-26 23:23:00,70.0,67.0,29.89,WSW,249,5.0,17.0,89,0.00,,,0.00,,2013-08-27 03:23:00,
2013-08-26 23:45:00,70.0,67.0,29.89,WSW,258,6.0,13.0,90,0.00,,,0.00,,2013-08-27 03:45:00,
2013-08-26 23:58:00,70.0,67.0,29.88,SW,229,6.0,12.0,90,0.00,,,0.00,,2013-08-27 03:58:00,